EHI
2 4 6 5 4 5 5 3 1 0 0 0 0 0 0 0 1 3 3 2 1 2 4 4 2 0 1 2 2 1 1 2 2 1 1 1 0 1 3 3 2 1 0
2 4 6 5 4 4 4 3 1 0 0 0 0 0 0 0 1 2 3 2 1 2 4 3 2 1 1 3 2 1 0 1 1 0 0 0 0 2 3 3 3 1 0
1 3 4 4 3 3 3 2 0 0 0 0 0 0 0 0 1 1 2 2 1 2 4 3 1 1 2 3 2 1 0 0 0 0 0 0 0 1 2 3 3 2 1
0 1 2 3 3 3 2 1 0 0 0 0 0 0 0 0 0 0 1 2 2 2 3 2 0 1 1 2 1 1 0 0 0 0 0 0 0 1 2 2 2 1 1
0 1 2 3 3 3 2 1 0 0 0 0 0 0 0 0 0 0 0 1 1 1 1 0 0 1 1 0 1 1 0 0 0 0 0 0 1 2 3 2 2 1 1
0 1 2 3 3 3 1 0 0 0 0 0 0 0 0 0 0 0 0 0 0 0 0 0 0 1 0 0 1 1 1 0 0 0 0 0 1 3 2 2 2 2 1
0 1 3 4 3 3 1 0 0 0 0 0 0 0 0 0 0 0 0 0 0 0 0 0 0 0 0 0 1 2 1 0 0 0 0 0 1 1 1 0 1 1 1
0 2 4 5 4 3 2 1 1 1 0 0 0 0 0 0 0 0 0 0 0 0 0 0 0 0 0 0 1 2 2 1 0 0 0 0 0 1 0 0 0 0 0
1 2 4 4 3 3 3 2 1 0 0 0 0 0 0 0 0 0 0 0 0 0 0 0 0 0 0 0 1 3 3 1 0 0 0 0 0 0 0 0 1 1 1
0 1 3 2 2 2 3 2 1 0 0 0 0 0 0 0 0 0 0 0 0 0 0 0 0 0 0 1 2 4 3 1 0 0 0 0 0 0 0 2 4 4 2
0 1 2 2 2 1 1 2 1 0 0 0 0 0 0 0 0 0 0 0 0 0 0 0 0 0 1 2 3 4 3 1 0 0 0 0 1 1 1 3 5 4 2
0 0 1 2 1 0 0 1 1 0 0 0 0 1 1 0 0 0 0 0 0 0 0 0 0 0 1 1 2 2 1 1 0 0 0 1 2 2 2 3 4 3 1
1 0 0 1 1 1 0 0 0 0 0 0 0 1 1 0 0 0 0 0 0 0 0 0 0 0 0 0 0 0 0 0 0 0 0 1 3 2 1 1 2 2 1
2 1 1 1 3 4 2 1 0 0 0 0 0 0 0 0 0 0 0 1 1 1 1 1 0 0 0 0 0 0 0 0 0 0 0 2 3 2 0 0 0 0 0
3 3 2 2 4 6 5 3 1 0 0 0 0 0 0 1 1 0 1 2 2 1 1 2 1 0 1 1 0 0 0 0 0 0 1 3 4 4 3 2 2 1 0
3 3 3 3 4 5 5 3 1 0 0 0 1 0 0 1 1 1 1 1 1 0 1 2 2 1 1 1 0 0 0 0 0 0 0 2 4 7 8 7 5 3 2
3 3 4 4 5 5 4 2 0 0 0 1 1 0 1 1 2 2 1 0 0 0 0 1 1 1 1 1 0 0 0 0 0 0 0 0 2 6 10 10 8 6 5
4 4 5 5 6 5 3 1 0 0 0 1 0 1 2 2 3 2 1 0 0 0 0 0 0 1 1 0 0 0 0 0 0 0 0 0 1 3 6 8 8 7 6
5 6 7 7 7 6 4 2 1 0 0 0 0 1 2 2 2 2 1 0 1 1 1 1 0 0 0 0 0 0 0 0 0 0 0 1 1 1 2 5 6 6 6
7 9 11 11 10 8 5 3 2 1 0 0 0 0 1 1 1 1 0 1 2 2 2 1 0 0 0 0 0 0 0 0 1 1 1 1 1 2 2 3 4 5 5
10 12 14 14 14 12 9 6 4 2 1 0 0 0 0 0 0 0 0 1 2 1 1 0 0 0 0 0 0 0 0 0 1 2 2 1 1 2 3 3 4 5 5
12 14 15 16 17 16 13 9 6 3 1 0 0 0 0 0 0 0 0 1 1 0 0 0 0 0 0 0 1 1 0 1 1 2 1 1 0 1 2 4 4 4 4
12 14 16 18 18 18 16 12 8 5 3 1 0 0 0 0 0 0 0 0 0 0 1 1 1 0 1 1 2 2 1 1 1 1 0 0 0 0 1 3 3 3 3
11 12 16 19 20 20 20 17 12 7 4 2 1 0 0 0 0 0 0 0 0 0 1 2 2 2 2 3 4 4 3 2 2 1 0 1 1 0 0 1 1 2 3
9 10 15 19 21 22 23 23 18 10 5 3 2 2 1 0 1 1 1 1 0 0 0 1 2 2 4 5 5 4 5 5 4 2 2 2 2 1 1 1 0 2 3
9 9 13 19 22 23 24 24 21 12 6 4 4 4 2 1 2 2 2 2 1 0 0 0 1 2 4 5 4 4 5 7 6 3 3 3 3 2 2 2 1 1 3
Wind_Speed
4 6 9 8 8 9 9 9 9 9 9 9 9 9 9 9 11 12 13 14 15 16 16 16 16 17 17 17 17 16 15 15 15 14 14 14 13 12 12 11 10 11 13
5 7 9 8 8 8 8 9 9 9 9 9 10 10 10 11 12 13 14 14 15 16 16 16 16 16 17 17 16 16 16 15 14 14 13 13 12 11 10 9 6 10 12
5 7 8 8 8 8 8 8 9 9 9 9 10 10 10 12 13 13 13 14 15 16 16 15 16 16 17 16 16 15 15 14 13 12 11 9 11 11 10 9 10 12 12
6 6 8 9 8 8 8 8 8 8 9 10 11 11 11 13 13 14 14 14 15 15 15 16 16 16 16 16 15 15 14 13 12 11 7 8 9 11 10 10 10 11 11
6 7 9 8 8 8 8 8 8 9 9 10 10 11 12 13 13 14 14 14 15 15 15 15 15 15 15 15 14 14 13 12 10 8 7 7 8 11 10 10 10 10 10
7 7 10 8 8 8 7 8 8 8 9 10 10 11 12 12 13 14 14 14 15 15 15 15 15 15 14 14 13 12 12 10 9 7 7 7 9 10 10 10 9 9 9
7 8 10 9 8 8 8 8 8 8 8 9 10 11 12 13 13 14 14 14 14 14 14 14 14 13 13 13 12 11 10 7 5 7 6 7 9 9 9 9 9 9 8
7 7 9 9 7 8 8 8 8 8 9 9 10 11 12 12 12 12 13 13 13 13 13 13 13 12 12 11 10 10 8 5 7 7 6 7 10 8 8 8 8 8 8
7 7 7 8 8 8 7 7 7 7 8 10 10 10 11 11 11 11 11 12 12 12 12 12 12 11 11 10 9 8 6 3 4 5 6 7 9 8 7 7 7 8 8
6 6 6 6 6 6 8 8 8 8 10 10 11 10 10 11 11 11 10 11 11 12 11 11 11 11 10 9 8 7 6 6 5 6 5 8 9 7 7 7 7 7 7
5 5 5 6 5 5 6 7 7 9 9 9 9 9 7 6 8 8 11 10 10 10 10 10 10 10 9 10 8 7 7 3 5 4 5 10 8 7 6 6 6 7 6
6 6 5 5 5 5 4 4 4 5 6 5 6 6 5 5 5 7 10 9 9 9 10 9 9 10 8 7 9 9 4 4 4 4 6 10 7 6 6 6 6 6 7
6 5 6 6 4 3 3 3 3 3 4 5 6 5 4 4 4 4 4 7 7 8 6 8 8 4 3 3 3 3 3 2 2 3 7 9 7 7 6 6 6 7 7
5 5 5 6 4 3 2 3 3 3 3 3 4 4 4 3 3 3 3 4 3 3 3 3 3 3 3 3 2 2 3 2 2 3 6 8 7 7 6 6 6 6 7
5 5 5 4 4 3 2 1 3 3 3 4 3 4 3 3 3 3 3 2 3 3 3 3 3 3 3 3 3 3 2 2 2 2 5 8 7 7 7 6 6 6 6
5 5 5 4 5 3 3 2 2 2 3 3 3 4 2 3 3 2 3 2 2 2 2 2 3 3 2 2 2 2 2 2 2 2 3 7 8 7 6 6 6 6 6
6 5 5 5 5 3 3 2 2 2 3 3 3 3 2 2 3 2 2 2 2 2 3 2 3 2 2 3 3 2 2 2 2 1 2 2 5 8 7 6 6 5 6
6 6 5 4 5 4 3 2 2 2 2 2 2 3 3 2 1 1 1 2 2 1 2 2 1 2 2 1 2 1 1 2 2 2 2 2 2 3 7 8 7 6 6
7 7 6 5 5 5 4 3 2 2 2 2 2 2 2 2 1 1 1 2 1 1 1 1 2 1 1 1 1 1 1 2 2 2 2 2 2 2 2 7 8 7 7
7 7 7 6 5 5 4 3 2 2 2 2 2 2 2 2 2 1 1 1 1 1 1 1 1 1 0 0 0 1 1 1 2 1 2 2 2 3 3 2 5 6 9
8 7 7 7 6 5 4 4 3 3 2 2 2 2 2 2 2 1 1 2 1 1 1 1 1 2 1 1 1 1 2 3 2 2 2 2 2 2 2 3 3 3 4
9 8 8 8 7 7 5 3 2 2 2 2 1 2 3 3 3 3 2 2 2 1 2 1 1 1 0 1 1 1 1 3 3 2 2 3 2 2 3 3 3 3 4
10 9 8 8 8 7 6 4 4 3 3 3 3 3 3 3 3 2 2 2 2 3 2 2 2 2 1 1 1 2 2 1 0 2 1 1 1 2 2 2 4 4 4
11 10 9 9 8 8 7 6 6 4 3 3 2 2 2 3 3 3 3 3 3 2 2 3 2 2 2 2 1 1 2 2 3 1 2 2 2 2 2 2 2 3 3
11 10 10 9 9 9 8 7 6 5 4 3 3 2 2 2 3 3 3 2 3 2 2 1 1 3 3 3 2 1 1 2 3 3 2 2 1 1 1 2 2 2 2
11 10 10 10 9 9 9 8 7 6 4 3 3 3 3 2 2 3 3 2 3 2 2 3 3 4 3 3 3 2 2 2 2 2 3 3 2 1 1 1 2 2 2
Wind_Direction
64 73 81 75 72 69 68 70 74 79 80 79 81 86 99 111 117 120 123 125 124 122 121 120 120 120 121 123 125 125 124 125 127 128 125 124 124 124 128 133 140 117 114
78 85 88 77 76 72 71 70 73 77 78 78 80 85 93 106 117 121 122 124 123 121 120 119 118 119 119 121 124 124 124 125 131 130 130 128 125 125 127 127 112 112 123
87 91 94 79 78 74 72 72 73 75 77 78 81 86 91 104 111 115 117 121 122 120 119 120 118 117 118 122 123 124 126 128 130 133 146 136 126 127 127 123 116 123 124
90 91 83 84 80 77 75 73 74 77 78 79 85 89 91 101 104 112 113 117 121 120 120 119 117 118 118 119 120 123 125 125 133 153 149 126 129 128 132 131 128 127 127
90 90 89 86 81 78 75 74 75 78 80 82 86 91 94 101 106 111 115 116 119 120 119 118 117 116 116 117 118 119 123 129 146 158 122 125 121 129 137 136 133 131 131
106 101 94 90 83 79 77 77 77 79 81 84 87 90 95 101 106 109 110 113 116 118 118 118 117 117 117 119 120 121 125 141 167 129 126 128 121 132 140 140 139 138 138
103 101 100 97 89 81 78 78 78 79 83 87 90 92 93 98 103 107 111 112 115 117 119 118 118 118 120 122 122 125 130 161 146 118 129 117 112 132 143 147 148 147 146
105 102 105 108 96 87 80 78 75 79 87 93 96 98 97 97 101 107 111 115 119 122 121 121 123 126 124 124 126 128 139 185 139 123 120 107 113 133 142 150 155 155 151
107 108 107 116 116 107 92 81 75 83 97 100 100 102 103 103 104 106 109 114 119 122 123 124 128 128 125 128 132 134 146 220 144 122 122 115 127 138 141 145 148 152 150
110 107 107 103 105 115 109 95 82 84 103 108 106 108 110 115 118 119 117 110 117 122 126 128 128 128 129 134 140 147 173 209 140 125 118 117 134 144 147 149 150 151 154
113 111 110 111 105 101 96 103 103 99 108 121 117 121 129 118 115 121 100 111 119 124 127 130 133 136 145 148 149 167 193 177 123 108 103 116 139 146 149 152 154 158 160
127 125 116 109 101 99 94 98 92 93 96 95 93 105 105 100 97 101 114 121 126 131 139 142 152 166 188 154 156 184 177 140 126 123 111 129 148 154 153 155 160 164 166
132 128 125 115 116 108 104 100 87 87 93 98 95 95 90 96 108 112 123 135 139 153 146 152 171 160 144 116 141 149 118 121 119 114 120 140 155 161 162 164 170 175 174
133 128 120 121 119 100 82 99 110 107 101 95 96 90 95 88 87 94 101 107 120 115 119 132 126 119 124 125 135 128 137 123 112 103 125 148 160 169 174 176 178 180 181
142 137 123 126 122 124 119 110 108 102 100 102 100 95 93 103 86 82 79 85 98 108 131 126 116 120 133 143 136 132 131 112 116 128 133 151 161 170 177 181 183 186 189
158 147 137 146 138 141 142 133 114 121 120 104 100 98 93 91 88 95 103 86 85 87 82 108 119 127 119 103 117 123 131 123 110 136 146 152 163 172 180 187 194 198 198
166 158 158 157 146 152 152 163 148 135 123 114 111 114 110 98 103 103 96 107 88 95 108 114 105 112 128 129 126 128 147 141 133 146 163 171 165 172 181 191 200 207 208
168 165 175 173 155 156 158 169 144 137 122 128 127 129 125 109 123 121 91 88 92 113 111 118 108 93 92 114 119 136 146 154 172 180 181 183 202 178 174 184 199 211 218
176 174 178 179 169 167 162 169 162 146 147 160 152 146 139 156 151 153 91 77 137 105 102 130 103 83 108 115 156 161 188 187 186 191 190 200 192 214 207 170 189 208 221
177 177 180 179 179 176 171 173 169 166 165 171 166 156 174 178 169 206 155 142 199 141 136 95 128 146 215 236 278 103 220 201 216 206 224 209 208 219 236 221 198 197 207
180 181 183 186 176 180 182 187 177 173 179 177 179 164 191 198 174 215 217 169 213 156 176 170 188 173 174 160 207 192 184 198 207 215 229 240 218 222 236 238 250 252 197
184 186 184 186 183 187 182 187 190 189 198 184 184 170 196 192 197 194 207 222 192 187 188 200 212 262 165 168 281 271 215 177 194 188 201 215 235 225 227 225 232 243 269
188 189 190 187 184 189 184 185 182 183 201 186 191 189 195 203 205 215 205 227 222 224 179 201 206 221 238 217 278 299 303 14 315 162 192 215 242 249 240 224 222 228 242
190 187 189 186 186 185 185 194 195 201 202 199 204 186 198 207 216 210 210 213 230 232 194 215 179 220 236 233 195 258 310 341 300 254 193 180 203 232 260 259 240 223 235
192 186 184 184 187 186 190 191 202 208 206 200 200 189 223 205 214 213 212 209 212 219 208 250 234 241 238 260 259 237 235 229 254 280 293 288 243 225 240 264 267 254 237
190 188 183 182 187 188 190 193 199 207 209 208 210 203 210 197 197 203 204 205 209 208 201 220 233 229 243 263 274 268 256 260 265 275 280 276 288 292 272 272 264 253 246